• In Romania
  • List of Countries
  • For 7 days
  • Water Temperature
  • Satellite Maps
  • Weather Map
  • Weather Widgets
  • user-avatar
    Login

    Hourly Weather Lubango

    Today, 20 April, Friday

    Time Temperature Precipitation Wind Pressure Humidity
    00:00 +15°C° 0 mm 1 mps 609 mmHg 73%
    01:00 +15°C° 0 mm 1 mps 609 mmHg 73%
    02:00 +15°C° 0 mm 1 mps 609 mmHg 73%
    03:00 +14°C° 0 mm 1 mps 609 mmHg 73%
    04:00 +14°C° 0 mm 1 mps 609 mmHg 73%
    05:00 +14°C° 0 mm 1 mps 609 mmHg 74%
    06:00 +15°C° 0 mm 1 mps 609 mmHg 74%
    07:00 +15°C° 0 mm 1 mps 610 mmHg 75%
    08:00 +18°C° 0 mm 2 mps 611 mmHg 66%
    09:00 +20°C° 0 mm 2 mps 612 mmHg 57%
    10:00 +24°C° 0 mm 3 mps 613 mmHg 48%
    11:00 +24°C° 0 mm 3 mps 613 mmHg 46%
    12:00 +25°C° 0 mm 3 mps 612 mmHg 43%
    13:00 +26°C° 0 mm 3 mps 612 mmHg 40%
    14:00 +26°C° 0 mm 2 mps 612 mmHg 43%
    15:00 +25°C° 0 mm 2 mps 611 mmHg 45%
    16:00 +25°C° 0 mm 2 mps 611 mmHg 47%
    17:00 +23°C° 0 mm 2 mps 610 mmHg 54%
    18:00 +19°C° 0 mm 2 mps 610 mmHg 60%
    19:00 +18°C° 0 mm 1 mps 609 mmHg 67%
    20:00 +18°C° 0 mm 1 mps 609 mmHg 68%
    21:00 +16°C° 0 mm 1 mps 609 mmHg 69%
    22:00 +15°C° 0 mm 1 mps 610 mmHg 70%
    23:00 +15°C° 0 mm 1 mps 609 mmHg 71%

    Tomorrow, 21 April, Saturday

    Time Temperature Precipitation Wind Pressure Humidity
    00:00 +15°C° 0 mm 1 mps 609 mmHg 71%
    01:00 +14°C° 0 mm 1 mps 609 mmHg 72%
    02:00 +14°C° 0 mm 1 mps 609 mmHg 72%
    03:00 +14°C° 0 mm 1 mps 609 mmHg 72%
    04:00 +14°C° 0 mm 1 mps 608 mmHg 72%
    05:00 +14°C° 0 mm 1 mps 609 mmHg 72%
    06:00 +14°C° 0 mm 1 mps 609 mmHg 72%
    07:00 +15°C° 0 mm 1 mps 609 mmHg 72%
    08:00 +18°C° 0 mm 1 mps 611 mmHg 64%
    09:00 +20°C° 0 mm 2 mps 612 mmHg 56%
    10:00 +24°C° 0 mm 2 mps 613 mmHg 47%
    11:00 +25°C° 0 mm 3 mps 613 mmHg 44%
    12:00 +25°C° 0 mm 3 mps 613 mmHg 41%
    13:00 +26°C° 0 mm 3 mps 613 mmHg 38%
    14:00 +26°C° 0 mm 3 mps 612 mmHg 40%
    15:00 +26°C° 0 mm 3 mps 611 mmHg 43%
    16:00 +25°C° 0 mm 3 mps 611 mmHg 45%
    17:00 +23°C° 0 mm 2 mps 610 mmHg 51%
    18:00 +20°C° 0 mm 2 mps 610 mmHg 58%
    19:00 +18°C° 0 mm 2 mps 609 mmHg 65%
    20:00 +17°C° 0 mm 2 mps 609 mmHg 65%
    21:00 +17°C° 0 mm 2 mps 610 mmHg 66%
    22:00 +16°C° 0 mm 1 mps 610 mmHg 66%
    23:00 +16°C° 0 mm 1 mps 610 mmHg 67%

    Day after tomorrow, 22 April, Sunday

    Time Temperature Precipitation Wind Pressure Humidity
    00:00 +15°C° 0 mm 1 mps 609 mmHg 67%
    01:00 +15°C° 0 mm 1 mps 609 mmHg 68%
    02:00 +15°C° 0 mm 1 mps 609 mmHg 68%
    03:00 +15°C° 0 mm 1 mps 609 mmHg 68%
    04:00 +14°C° 0 mm 1 mps 608 mmHg 68%
    05:00 +15°C° 0 mm 1 mps 609 mmHg 68%
    06:00 +15°C° 0 mm 1 mps 609 mmHg 68%
    07:00 +15°C° 0 mm 2 mps 609 mmHg 69%
    08:00 +18°C° 0 mm 2 mps 611 mmHg 60%
    09:00 +21°C° 0 mm 3 mps 612 mmHg 51%
    10:00 +25°C° 0 mm 3 mps 613 mmHg 43%
    11:00 +25°C° 0 mm 3 mps 613 mmHg 40%
    12:00 +26°C° 0 mm 3 mps 613 mmHg 38%
    13:00 +27°C° 0 mm 4 mps 612 mmHg 35%
    14:00 +27°C° 0 mm 3 mps 612 mmHg 37%
    15:00 +27°C° 0 mm 3 mps 611 mmHg 39%
    16:00 +26°C° 0 mm 3 mps 611 mmHg 41%
    17:00 +24°C° 0 mm 2 mps 610 mmHg 47%
    18:00 +20°C° 0 mm 2 mps 610 mmHg 54%
    19:00 +18°C° 0 mm 2 mps 609 mmHg 61%
    20:00 +17°C° 0 mm 2 mps 609 mmHg 61%
    21:00 +18°C° 0 mm 1 mps 610 mmHg 61%
    22:00 +16°C° 0 mm 1 mps 610 mmHg 62%
    23:00 +16°C° 0 mm 1 mps 610 mmHg 62%

    23 April, Monday

    Time Temperature Precipitation Wind Pressure Humidity
    00:00 +16°C° 0 mm 1 mps 609 mmHg 62%
    01:00 +15°C° 0 mm 1 mps 609 mmHg 62%
    02:00 +15°C° 0 mm 1 mps 609 mmHg 62%
    03:00 +15°C° 0 mm 1 mps 609 mmHg 62%
    04:00 +15°C° 0 mm 1 mps 609 mmHg 61%
    05:00 +15°C° 0 mm 1 mps 609 mmHg 62%
    06:00 +15°C° 0 mm 2 mps 609 mmHg 63%
    07:00 +15°C° 0 mm 2 mps 610 mmHg 64%
    08:00 +18°C° 0 mm 2 mps 611 mmHg 56%
    09:00 +21°C° 0 mm 2 mps 612 mmHg 47%
    10:00 +25°C° 0 mm 3 mps 614 mmHg 39%
    11:00 +26°C° 0 mm 3 mps 613 mmHg 36%
    12:00 +27°C° 0 mm 3 mps 613 mmHg 34%
    13:00 +28°C° 0 mm 3 mps 613 mmHg 31%
    14:00 +27°C° 0 mm 3 mps 612 mmHg 33%
    15:00 +27°C° 0 mm 3 mps 612 mmHg 35%
    16:00 +27°C° 0 mm 2 mps 611 mmHg 37%
    17:00 +24°C° 0 mm 2 mps 611 mmHg 45%
    18:00 +20°C° 0 mm 2 mps 610 mmHg 52%
    19:00 +18°C° 0 mm 2 mps 609 mmHg 59%
    20:00 +18°C° 0 mm 1 mps 610 mmHg 60%
    21:00 +18°C° 0 mm 1 mps 610 mmHg 61%
    22:00 +16°C° 0 mm 1 mps 610 mmHg 62%
    23:00 +16°C° 0 mm 1 mps 610 mmHg 63%

    24 April, Tuesday

    Time Temperature Precipitation Wind Pressure Humidity
    00:00 +16°C° 0 mm 1 mps 609 mmHg 63%
    01:00 +15°C° 0 mm 1 mps 609 mmHg 63%
    02:00 +15°C° 0 mm 1 mps 609 mmHg 63%
    03:00 +15°C° 0 mm 1 mps 609 mmHg 62%
    04:00 +15°C° 0 mm 1 mps 608 mmHg 62%
    05:00 +15°C° 0 mm 1 mps 609 mmHg 62%
    06:00 +15°C° 0 mm 1 mps 609 mmHg 63%
    07:00 +16°C° 0 mm 1 mps 610 mmHg 63%
    08:00 +20°C° 0 mm 1 mps 611 mmHg 55%
    09:00 +21°C° 0 mm 2 mps 612 mmHg 48%
    10:00 +25°C° 0 mm 2 mps 614 mmHg 40%
    11:00 +26°C° 0 mm 2 mps 613 mmHg 37%
    12:00 +27°C° 0 mm 2 mps 613 mmHg 35%
    13:00 +28°C° 0 mm 3 mps 612 mmHg 32%
    14:00 +27°C° 0 mm 2 mps 612 mmHg 34%
    15:00 +27°C° 0 mm 2 mps 612 mmHg 36%
    16:00 +27°C° 0 mm 2 mps 611 mmHg 38%
    17:00 +24°C° 0 mm 2 mps 611 mmHg 44%
    18:00 +21°C° 0 mm 2 mps 610 mmHg 51%
    19:00 +19°C° 0 mm 1 mps 610 mmHg 57%
    20:00 +19°C° 0 mm 1 mps 610 mmHg 58%
    21:00 +18°C° 0 mm 1 mps 610 mmHg 59%
    22:00 +16°C° 0 mm 1 mps 610 mmHg 60%
    23:00 +16°C° 0 mm 1 mps 609 mmHg 59%

    25 April, Wednesday

    Time Temperature Precipitation Wind Pressure Humidity
    00:00 +16°C° 0 mm 1 mps 609 mmHg 59%
    01:00 +15°C° 0 mm 1 mps 609 mmHg 58%
    02:00 +15°C° 0 mm 1 mps 609 mmHg 57%
    03:00 +15°C° 0 mm 1 mps 609 mmHg 56%
    04:00 +15°C° 0 mm 1 mps 608 mmHg 56%
    05:00 +15°C° 0 mm 1 mps 609 mmHg 56%
    06:00 +15°C° 0 mm 1 mps 609 mmHg 57%
    07:00 +16°C° 0 mm 1 mps 610 mmHg 58%
    08:00 +20°C° 0 mm 1 mps 611 mmHg 51%
    09:00 +23°C° 0 mm 2 mps 612 mmHg 43%
    10:00 +26°C° 0 mm 2 mps 614 mmHg 36%
    11:00 +26°C° 0 mm 2 mps 613 mmHg 34%
    12:00 +27°C° 0 mm 2 mps 613 mmHg 31%
    13:00 +28°C° 0 mm 2 mps 612 mmHg 29%
    14:00 +27°C° 0 mm 2 mps 612 mmHg 31%
    15:00 +27°C° 0 mm 1 mps 612 mmHg 33%
    16:00 +27°C° 0 mm 1 mps 611 mmHg 34%
    17:00 +24°C° 0 mm 1 mps 611 mmHg 41%
    18:00 +22°C° 0 mm 1 mps 610 mmHg 48%
    19:00 +19°C° 0 mm 1 mps 609 mmHg 55%
    20:00 +18°C° 0 mm 1 mps 609 mmHg 57%
    21:00 +18°C° 0 mm 1 mps 609 mmHg 59%
    22:00 +16°C° 0 mm 1 mps 609 mmHg 60%
    23:00 +16°C° 0 mm 1 mps 609 mmHg 60%
    Show more